Content
SEND FEEDBACK

Daily
Averages
Monthly
Summary
United States of America

PATCHOGUE, NEW YORK


Home > North America > United States > New York
Elevation: 2 feet     Latitude: 40 45N     Longitude: 073 00W

WEATHER
 
SELECT A DAY
Number of Records: 161,725;   Date Range: 9/29/99 - 12/17/14
 
SHARE

PRINT THIS DATA

[ ← Previous Day ]
WEATHER ALMANAC - JANUARY 23, 2013
[ Next Day → ]
[ °C ]   °F
Weather ElementAverageHighLow
Temperature14.9 °F19 °F (2:56 pm)10 °F (6:56 am)
Dewpoint-2.9 °F-0.9 °F (2:56 pm)-6 °F (1:56 am)
Humidity45.6 %58 % (6:56 am)39 % (7:56 pm)
Barometer30.19 in30.23 in (8:56 am)30.16 in (1:56 pm)
Wind Speed9.2 mph18.4 mph (11:56 am)
Wind Gust29.9 mph (12:56 pm)
Weather ElementAverage
Visibility10 mi
Wind DirectionWNW (282.7 °)

Weather ElementTotal
Precipitation---
Heating Degree Days50.5 (Base 65)
Averaged from 22 records on January 23, 2013
WEATHER CONDITIONS BREAKOUT
WIND DIRECTION BREAKOUT
WEATHER BY HOUR - JANUARY 23, 2013
[ °C ]   °F
Local TimeTemperatureDewpointHumidityBarometerVisibilityWind DirectionWind SpeedGust SpeedPrecipitationEventsConditions
1:56 AM12.9 °F-6.0 °F43 %30.18 in10.0 miNW (310°)12.7 mphClear
2:56 AM12.9 °F-4.0 °F47 %30.20 in10.0 miWNW (290°)10.4 mphClear
3:56 AM12.0 °F-2.9 °F51 %30.19 in10.0 miWest (280°)5.8 mphClear
4:56 AM10.9 °F-2.0 °F56 %30.19 in10.0 miWest (270°)5.8 mphPartly Cloudy
5:56 AM10.9 °F-2.0 °F56 %30.20 in10.0 miWest (280°)5.8 mphClear
6:56 AM10.0 °F-2.0 °F58 %30.22 in10.0 miWest (270°)5.8 mphScattered Clouds
7:56 AM10.9 °F-2.0 °F56 %30.22 in10.0 miWest (280°)3.5 mphClear
8:56 AM14.0 °F-2.9 °F47 %30.23 in10.0 miWNW (300°)16.1 mph23.0 mphScattered Clouds
10:56 AM16.0 °F-2.9 °F43 %30.23 in10.0 miWNW (290°)9.2 mph24.2 mphPartly Cloudy
11:56 AM17.1 °F-2.9 °F41 %30.19 in10.0 miWNW (300°)18.4 mph24.2 mphScattered Clouds
12:56 PM18.0 °F-2.9 °F40 %30.17 in10.0 miWNW (300°)17.3 mph29.9 mphMostly Cloudy
1:56 PM18.0 °F-2.9 °F40 %30.16 in10.0 miWNW (290°)15.0 mph25.3 mphMostly Cloudy
2:56 PM19.0 °F-0.9 °F42 %30.16 in10.0 miNW (310°)13.8 mph21.9 mphMostly Cloudy
3:56 PM18.0 °F-2.0 °F41 %30.16 in10.0 miNW (310°)11.5 mph19.6 mphMostly Cloudy
4:56 PM18.0 °F-2.0 °F41 %30.17 in10.0 miNW (310°)6.9 mphOvercast
5:56 PM18.0 °F-2.0 °F41 %30.18 in10.0 miWNW (290°)9.2 mphOvercast
6:56 PM17.1 °F-2.9 °F41 %30.19 in10.0 miWNW (300°)8.1 mphMostly Cloudy
7:56 PM17.1 °F-4.0 °F39 %30.19 in10.0 miNW (310°)8.1 mphMostly Cloudy
8:56 PM16.0 °F-5.1 °F39 %30.19 in10.0 miNW (310°)8.1 mphScattered Clouds
9:56 PM15.1 °F-4.0 °F43 %30.19 in10.0 miNW (320°)6.9 mphClear
10:56 PM12.9 °F-4.0 °F47 %30.20 in10.0 miWNW (300°)3.5 mphClear
11:56 PM12.9 °F-2.0 °F51 %30.20 in10.0 miCalmClear
Hourly data recorded from KHWV, located miles away from Patchogue, New York







STORIES FROM OUR PARTNERS